Regional Weather Roundup
Issued by NWS

Home | Current Version | Previous Version | Text Only | Print | Product List | Glossary Off
Versions: 1 2 3 4 5 6 7 8 9 10 11 12 13 14 15 16 17 18 19 20 21 22 23 24 25 26 27 28 29

000
ASUS45 KBOU 260907
RWRCO

WEATHER ROUNDUP FOR COLORADO
NATIONAL WEATHER SERVICE DENVER/BOULDER CO
300 AM MDT WED APR 26 2017

NOTE: "FAIR" INDICATES FEW OR NO CLOUDS BELOW 12000 FEET WITH NO
SIGNIFICANT WEATHER AND/OR OBSTRUCTIONS TO VISIBILITY.

COZ001>005-013-030-031-261000-
...NORTHWEST COLORADO...

CITY           SKY/WX    TMP DP  RH WIND       PRES   REMARKS
CRAIG          CLOUDY    32  26  78 CALM      29.92S
HAYDEN         FAIR      28  23  80 S3        29.91
MEEKER         CLOUDY    34  32  92 CALM      29.92S
MOUNT WERNER   NOT AVBL
STEAMBOAT SPGS CLOUDY    30  28  94 SW5       29.90R WCI  25
WALDEN           N/A     25  19  80 SE3       29.88S
$$

COZ006>008-011-261000-
...WEST CENTRAL VALLEYS...

CITY           SKY/WX    TMP DP  RH WIND       PRES   REMARKS
GRAND JUNCTION MOCLDY    38  36  92 CALM      29.90S
MONTROSE       CLOUDY    38  33  82 CALM      29.94R
EAGLE          FAIR      29  28  96 CALM      29.91S
RIFLE          MOCLDY    37  34  89 CALM      29.92R
DELTA          FAIR      38  34  85 CALM      29.92S
NUCLA          NOT AVBL
$$

COZ017>023-064>068-261000-
...SOUTHWEST COLORADO...

CITY           SKY/WX    TMP DP  RH WIND       PRES   REMARKS
DURANGO        FAIR      32  18  56 E6        29.84R WCI  26
CORTEZ         FAIR      36  28  73 E9        29.90S
PAGOSA SPRINGS FAIR      29  23  79 NW3       29.86S
TELLURIDE      MOCLDY    28  26  90 W3        29.95S
WOLF CREEK PAS FAIR      16  12  86 NW10G16   29.92S WCI   3
$$

COZ009-010-012-014-032>034-037-058>063-261000-
...CENTRAL COLORADO...

CITY           SKY/WX    TMP DP  RH WIND       PRES   REMARKS
ASPEN          CLOUDY    31  29  92 CALM      29.88S
BUENA VISTA    FAIR      31  21  65 NW7       29.82S WCI  25
COPPER MTN     LGT SNOW  21  16  79 MISG      29.87S
BERTHOUD PASS  CLOUDY    12   1  62 N37G53    29.79R WCI -11
COTTONWOOD PAS FAIR      32  18  55 W15G30    29.82F WCI  22
GUNNISON       FAIR      32  27  81 SW7       29.88F WCI  26
KREMMLING      CLOUDY    37  32  81 CALM      29.88S
LEADVILLE      LGT SNOW  23  19  85 NW10      29.84S FOG     WCI  12
MONARCH PASS   CLOUDY    19  16  86 W29G35    29.95F WCI   1
SALIDA         FAIR      32  26  76 CALM      29.89F
SUNLIGHT       FOG      N/A N/A N/A CALM      29.96S VSB 1/2
WILKERSON PASS MOCLDY    19  18  93 NW9       29.84S WCI   9
$$

COZ069>075-261000-
...SAN LUIS VALLEY/SANGRE DE CRISTO MOUNTAINS...

CITY           SKY/WX    TMP DP  RH WIND       PRES   REMARKS
ALAMOSA        FAIR      33  27  78 N9        29.81S WCI  25
LA VETA PASS   SNOW      23  21  93 CALM      29.93F VSB 1/2
SAGUACHE       FAIR      32  21  64 NE9G16    29.84R WCI  24
$$

COZ035-036-038>040-261000-
...NORTHERN COLORADO FRONT RANGE...

CITY           SKY/WX    TMP DP  RH WIND       PRES   REMARKS
DENVER INTL AP CLOUDY    30  25  81 NE3       29.82F
DMNS CITY PARK   N/A     32  26  79 MISG      29.83F
AURORA         CLOUDY    29  27  91 SE3       29.82F
FRONT RANGE AP CLOUDY    32  30  93 N8        29.83F WCI  25
ERIE MUNI ARPT CLOUDY    33  27  80 CALM      29.84S
BOULDER MUN AP CLOUDY    32  28  86 SE6       29.82F WCI  26
CENTENNIAL     CLOUDY    29  26  89 E6        29.82F WCI  23
BROOMFIELD     CLOUDY    32  28  86 SE3       29.83S
FORT COLLINS   FAIR      27  23  85 S8        29.83F WCI  19
LONGMONT       CLOUDY    35  29  77 SE5       29.85S HAZE    WCI  31
$$

COZ041-046-047-076>085-087-088-261000-
...PIKES PEAK/PALMER DIVIDE AND SOUTHERN FOOTHILLS...

CITY           SKY/WX    TMP DP  RH WIND       PRES   REMARKS
COLO. SPRINGS  FAIR      32  26  78 N9        29.79S WCI  24
A. F. ACADEMY  FAIR      29  26  87 N14       29.77F WCI  18
SCHRIEVER AFB  FAIR      29  25  86 N14G20    29.79F WCI  18
ELLICOTT       NOT AVBL
FALCON         FAIR      27  26  94 N14G20    29.78F WCI  16
FORT CARSON    CLOUDY    36  28  75 N10       29.79S
LIMON          CLOUDY    31  29  92 NW20G29   29.80R WCI  19
MONUMENT HILL  CLOUDY    25  25 100 N8        29.82S WCI  16
TRINIDAD       MIX PCPN  34  32  92 NW6       29.82R WCI  29
$$

COZ042>045-048>051-090-091-261000-
...NORTHEAST COLORADO...

CITY           SKY/WX    TMP DP  RH WIND       PRES   REMARKS
GREELEY ARPT   MOCLDY    31  27  85 W3        29.84F
AKRON          FAIR      28  25  88 NW12      29.79S WCI  18
BURLINGTON     NOT AVBL
WRAY           NOT AVBL
STERLING       FAIR      30  28  93 CALM      29.81S
HOLYOKE        FAIR      34  30  86 N12       29.80S WCI  25
FORT MORGAN    FAIR      29  27  90 W7        29.82S WCI  22
$$

COZ086-089-092>099-261000-
...SOUTHEAST COLORADO...

CITY           SKY/WX    TMP DP  RH WIND       PRES   REMARKS
PUEBLO         CLOUDY    39  31  72 E5        29.81S
LA JUNTA       CLOUDY    43  39  86 N9        29.79R
LAMAR          CLOUDY    41  37  86 N15       29.76R
SPRINGFIELD      N/A     39  39 100 N20       29.73R
$$




USA.gov is the U.S. government's official web portal to all federal, state and local government web resources and services.